Location: NJAA Observatory
(40.6819°N, 74.8979°W)
Time: 11:33:44
(UTC-04:00)

Iridium 84 - Visible Passes

Search period start: 20 August 2017 00:00
Search period end: 30 August 2017 00:00
Orbit: 776 x 779 km, 86.4° (Epoch: 20 August)

Date Brightness Start Highest point End Pass type
(mag) Time Alt. Az. Time Alt. Az. Time Alt. Az.
20 Aug 7.3 00:51:15 28° N 00:51:15 28° N 00:53:38 10° N visible
21 Aug 7.5 00:17:52 23° NNE 00:17:52 23° NNE 00:19:56 10° NNE visible
21 Aug 7.9 01:58:20 15° NW 01:58:20 15° NW 01:59:39 10° NNW visible
21 Aug 7.8 23:44:28 16° NE 23:44:28 16° NE 23:45:52 10° NNE visible
22 Aug 7.7 01:24:56 21° NNW 01:24:56 21° NNW 01:26:54 10° NNW visible
22 Aug 8.1 23:11:04 10° NE 23:11:04 10° NE 23:11:04 10° NE visible
23 Aug 7.5 00:51:32 25° N 00:51:32 25° N 00:53:42 10° N visible
24 Aug 7.5 00:18:08 24° NNE 00:18:08 24° NNE 00:20:10 10° N visible
24 Aug 8.2 01:58:37 10° NW 01:58:37 10° NW 01:58:47 10° NW visible
24 Aug 7.7 23:44:44 19° NNE 23:44:44 19° NNE 23:46:20 10° NNE visible
25 Aug 8.0 01:25:12 16° NW 01:25:12 16° NW 01:26:36 10° NNW visible
25 Aug 7.9 23:11:19 13° NE 23:11:19 13° NE 23:12:04 10° NE visible
26 Aug 7.7 00:51:47 21° NNW 00:51:47 21° NNW 00:53:38 10° N visible
27 Aug 7.6 00:18:22 23° N 00:18:22 23° N 00:20:18 10° N visible
27 Aug 7.6 23:44:57 21° NNE 23:44:57 21° NNE 23:46:39 10° NNE visible
28 Aug 8.2 01:25:25 12° NW 01:25:25 12° NW 01:26:03 10° NW visible
28 Aug 7.8 23:11:31 16° NNE 23:11:31 16° NNE 23:12:41 10° NNE visible
29 Aug 8.0 00:52:00 17° NNW 00:52:00 17° NNW 00:53:27 10° NNW visible
29 Aug 8.0 22:38:05 10° NE 22:38:05 10° NE 22:38:06 10° NE visible
